SL-19 DEB, 23480

Orbit data source: Space-Track

SL-19 DEB, 23480 is space debris in LEO originally from a launch on Mon, 26 Dec 1994 UTC launched from the Tyuratam Missile And Space Complex (TTMTR). Debris objects in space refer to the collection of defunct objects orbiting the Earth. Examples of debris include non-operational satellites, rocket bodies, and fragments generated from explosions, collisions, or faulty payload assembly.

Loading next visibility...
Identifier
23480, 1994-085D
Orbit
LEO
Last TLE update
23 hours ago
Origin
Manufacturer
Unknown
Mission
Spacecraft
Bus & Motor
Unknown
Mass
Unknown
Launch date (UTC)
1994-12-26 (30 years ago)
Launch vehicle
Unknown
Launch site
Tyuratam Missile And Space Complex (TTMTR)
Object type
Payload
Rocket body
Debris
Shape & HBR
Unknown
Radar Cross Section
Medium (>0.1 m² and <1 m²)

Expand to show TLE details & history

TLE from 23 hours ago
0 SL-19 DEB
1 23480U 94085D   25128.28523573 -.00000130  00000-0 -18800-2 0  9991
2 23480  64.7019  87.2907 0220051 216.1642 295.0579 11.45912591530925
Epoch: 2025-05-08T06:50Z
Definitive object data (Epoch: 2025-05-08T06:50:44.367Z)
Latitude
27.88245°
Longitude
-76.16432°
Altitude
1,860.662 km
Speed
6.99 km/s
True Right ascension
16h 51m 30s
True Declination
27° 45' 34"
Sunlit
Object was in daylight at TLE epoch
Visualization TLE readout
Latitude
-32.32413°
Longitude
-46.08123°
Altitude
1,760.609 km
Speed
7.076 km/s
Apparent Right ascension
21h 40m 54s
Apparent Declination
-51° 27' 02"
Sunlit
Object is in daylight
Visualization observer readout
Local Sidereal Time
14:24:31
Azimuth
128.535° SE
Elevation
-41.162°
Doppler factor
1
Orbital elements
Apogee altitude
2,114.154 km
Perigee altitude
1,748.454 km
Semi-major axis
8,309.441 km
Eccentricity
0.0220051
Inclination
64.7019°
RAAN
87.2907°
Arg. of periapsis
216.1642°
True anomaly
292.74735°
Mean anomaly
295.0579°
Eccentric anomaly
293.90526°
Mean motion
2.8654 °/min
BSTAR
-0.00188
Orbital period
125.64 mins
Loading maneuver chart data...
Loading SW <> Apogee altitude chart data...
Loading historical data...
Loading historical data...
Loading historical data...
Loading historical data...
Loading historical data...
Loading historical data...
Loading historical data...

SL-19 DEB Visibility forecast

Observer location: undefined°, undefined°

Span
Click to sort rows by Start time (UTC) header in descending order
Start Az.
Max El. time (UTC)
Max El. Az.
Max El.
End time (UTC)
End Az.
21 mins2025-05-09 07:42:43.397Z328.058° NNW2025-05-09 07:53:43.397Z63.685° ENE44.914°2025-05-09 08:03:43.397Z147.855° SSE
14 mins2025-05-09 09:55:43.397Z300.948° NW2025-05-09 10:02:43.397Z256.764° W21.533°2025-05-09 10:09:43.397Z213.34° SW
21 mins2025-05-09 21:49:43.397Z180.596° SSW2025-05-09 21:59:43.397Z111.739° ESE38.699°2025-05-09 22:10:43.397Z40.123° NE
22 mins2025-05-09 23:59:43.397Z240.719° WSW2025-05-10 00:10:43.397Z319.66° NNW38.052°2025-05-10 00:21:43.397Z28.097° NE
16 mins2025-05-10 02:16:43.397Z299.802° NW2025-05-10 02:24:43.397Z345.705° N20.83°2025-05-10 02:32:43.397Z30.683° NE
15 mins2025-05-10 04:33:43.397Z337.991° N2025-05-10 04:40:43.397Z20.734° NNE21.378°2025-05-10 04:48:43.397Z67.941° E
|